Location: Jalan Sepang
(2.8072°N, 101.8021°E)
Time: 05:09:13
(UTC+00:00)

Meteor 1-27 - Pass Details

Date: 15 May 2026
Orbit: 836 x 892 km, 81.3° (Epoch: 7 June)

Event Time Altitude Azimuth Distance (km) Brightness Sun altitude
Rises 12:23:26 0° 172° (S) 3,474 7.1 -16.5°
Reaches altitude 10° 12:26:00 10° 166° (SSE) 2,526 6.3 -17.1°
Maximum altitude 12:31:26 44° 95° (E) 1,179 4.5 -18.4°
Drops below altitude 10° 12:36:46 10° 24° (NNE) 2,483 6.6 -19.7°
Sets 12:39:15 0° 17° (NNE) 3,409 7.4 -20.2°
